Wetterstats.de || Aktuelle Messwerte || Aktuelle Wetterkarten NEU! || Radar / Satellit NEU! || Wetterarchiv || Langzeitwerte NEU! || Klim. Kenntage || Met. Ereignisse || Agrarwerte || Echtzeitwerte

Monatsübersicht für August 2020 Diagramm
 
Wetter Information zur Wetteranzeige
Zeitraffer
Tageslänge (hh:mm)
Höchsttemperatur in °C
Uhrzeit
Tiefsttemperatur in °C
Uhrzeit
Luftfeuchte (max., in %)
Uhrzeit
Luftfeuchte (min., in %)
Uhrzeit
Luftdruck (max., in hPa)
Uhrzeit
Luftdruck (min., in hPa)
Uhrzeit
Luftdruck (Ø, in hPa)
Regenrate (max, mm/h)
Uhrzeit
Niederschlag in mm
Verdunstung in mm
Solar in W/m² (Ø)
Solar in W/m² (max.)
UV-Index (max.)
Sonnenscheindauer (hh:mm)
Windrichtung (Ø)
Windstärke (Ø in km/h)
Windstärke (Ø in bft)
Windböe (max., in km/h)
Uhrzeit
Windböe (max., in bft)
Uhrzeit
Taupunkt (max., in °C)
Uhrzeit
Taupunkt (min., in °C)
Uhrzeit
Windchill (min., in °C)
Uhrzeit
Gewitterindex (max.)
Uhrzeit
Waldbrandindex (max.)
Uhrzeit
Graslandfeuerindex (max.)
Uhrzeit
Staubsturm-Index (max.)
Uhrzeit
01
Zeitraffer
15:35
29.3
18:20 Uhr
11.2
05:20 Uhr

94
04:50 Uhr
32
15:35 Uhr
1018.9
00:20 Uhr

1013.9
22:30 Uhr
1016.5
0,000
00:00 Uhr
0,000
5.334
469
858
13:30 Uhr
6.7
13:15 Uhr

12:22:00
3,6
1
30,6
13:20 Uhr

5
15.4
10:45 Uhr
9.5
14:20 Uhr
11.2
05:20 Uhr
7
22:30 Uhr
5.9
11:35 Uhr
5.9
00:00 Uhr
0.0
00:00 Uhr
02
Zeitraffer
15:32
23.4
16:45 Uhr
16.7
05:25 Uhr

89
05:25 Uhr
63
00:35 Uhr
1014.1
00:00 Uhr

1011.4
18:50 Uhr
1012.5
2,400
04:15 Uhr
1,000
2.032
177
704
09:55 Uhr
3.5
16:15 Uhr

02:01:00
3,0
1
29,0
12:00 Uhr

4
18.2
16:40 Uhr
12.3
03:30 Uhr
14.5
04:50 Uhr
12
21:40 Uhr
5.6
00:00 Uhr
5.9
00:00 Uhr
0.0
00:00 Uhr
03
Zeitraffer
15:28
22.7
14:45 Uhr
12.4
23:55 Uhr

96
03:50 Uhr
48
15:40 Uhr
1012.6
10:00 Uhr

1010.2
18:00 Uhr
1011.6
2,400
07:55 Uhr
0,400
2.210
206
1023
14:10 Uhr
6.1
14:00 Uhr

02:34:00
3,6
1
22,5
18:25 Uhr

4
16.9
00:10 Uhr
10.6
18:55 Uhr
12.4
23:55 Uhr
11
00:00 Uhr
4.7
16:05 Uhr
5.9
00:00 Uhr
0.0
00:00 Uhr
04
Zeitraffer
15:25
23.3
15:50 Uhr
8.9
06:30 Uhr

95
04:40 Uhr
39
15:50 Uhr
1017.6
23:50 Uhr

1011.6
01:30 Uhr
1013.7
0,000
00:00 Uhr
0,000
3.073
292
1069
13:50 Uhr
6.5
13:45 Uhr

05:47:00
3,2
1
25,7
12:20 Uhr

4
13.5
09:05 Uhr
8.1
06:30 Uhr
8.9
06:30 Uhr
5
22:15 Uhr
5.0
15:55 Uhr
5.9
00:00 Uhr
0.0
00:00 Uhr
05
Zeitraffer
15:22
28.0
17:25 Uhr
8.0
05:45 Uhr

93
04:20 Uhr
30
17:20 Uhr
1020.2
23:55 Uhr

1017.3
00:40 Uhr
1018.6
0,000
00:00 Uhr
0,000
4.826
430
877
12:25 Uhr
6.0
13:15 Uhr

12:01:00
3,1
1
30,6
13:45 Uhr

5
12.8
09:05 Uhr
6.9
05:45 Uhr
8.0
05:45 Uhr
5
21:35 Uhr
5.8
17:10 Uhr
5.9
00:00 Uhr
0.0
00:00 Uhr
06
Zeitraffer
15:18
30.6
16:25 Uhr
11.4
05:15 Uhr

91
05:55 Uhr
27
14:10 Uhr
1023.2
09:45 Uhr

1020.2
00:00 Uhr
1021.9
0,000
00:00 Uhr
0,000
5.512
461
847
13:10 Uhr
6.2
13:05 Uhr

12:10:00
3,5
1
25,7
15:30 Uhr

4
13.8
23:35 Uhr
7.5
14:10 Uhr
11.4
05:15 Uhr
7
21:30 Uhr
5.9
08:15 Uhr
5.9
00:00 Uhr
0.0
00:00 Uhr
07
Zeitraffer
15:15
33.4
16:25 Uhr
14.3
06:10 Uhr

89
06:10 Uhr
38
18:40 Uhr
1023.6
08:00 Uhr

1019.9
18:50 Uhr
1022.0
0,000
00:00 Uhr
0,000
4.775
391
875
14:30 Uhr
6.1
13:30 Uhr

09:57:00
3,5
1
35,4
15:35 Uhr

5
19.2
17:20 Uhr
12.4
06:05 Uhr
14.3
06:10 Uhr
13
21:30 Uhr
5.9
00:00 Uhr
5.9
00:00 Uhr
0.0
00:00 Uhr
08
Zeitraffer
15:11
36.0
15:45 Uhr
18.1
06:20 Uhr

90
01:20 Uhr
30
15:45 Uhr
1021.6
07:35 Uhr

1017.9
19:20 Uhr
1019.9
0,000
00:00 Uhr
0,000
4.750
384
891
14:05 Uhr
5.8
12:45 Uhr

09:38:00
2,6
1
24,1
12:40 Uhr

4
19.9
10:15 Uhr
14.4
18:35 Uhr
18.1
06:20 Uhr
13
00:00 Uhr
5.9
00:00 Uhr
5.9
00:00 Uhr
0.0
00:00 Uhr
09
Zeitraffer
15:07
34.2
12:35 Uhr
17.1
06:05 Uhr

91
06:10 Uhr
35
12:45 Uhr
1019.0
09:35 Uhr

1016.7
15:05 Uhr
1018.0
0,000
00:00 Uhr
0,000
3.302
265
819
14:05 Uhr
4.8
12:05 Uhr

05:13:00
2,8
1
27,4
15:15 Uhr

4
21.7
13:30 Uhr
15.4
15:45 Uhr
17.1
06:05 Uhr
13
13:30 Uhr
5.9
00:00 Uhr
5.9
00:00 Uhr
0.0
00:00 Uhr
10
Zeitraffer
15:04
32.9
13:45 Uhr
19.4
06:10 Uhr

89
01:40 Uhr
38
14:15 Uhr
1019.5
23:50 Uhr

1017.4
00:20 Uhr
1018.2
4,800
14:40 Uhr
1,200
3.378
282
891
13:50 Uhr
5.6
13:25 Uhr

06:12:00
3,5
1
45,1
14:30 Uhr

6
19.8
19:55 Uhr
15.6
14:15 Uhr
19.4
06:10 Uhr
12
00:00 Uhr
5.9
00:00 Uhr
5.9
00:00 Uhr
0.0
00:00 Uhr
11
Zeitraffer
15:00
31.3
16:45 Uhr
16.6
04:30 Uhr

92
03:50 Uhr
36
18:00 Uhr
1021.1
11:25 Uhr

1019.1
18:10 Uhr
1020.1
0,000
00:00 Uhr
0,000
5.486
440
798
13:35 Uhr
5.7
13:15 Uhr

12:09:00
5,2
1
24,1
13:10 Uhr

4
19.4
10:55 Uhr
13.5
18:20 Uhr
16.6
04:30 Uhr
11
00:00 Uhr
5.9
00:00 Uhr
5.9
00:00 Uhr
0.0
00:00 Uhr
12
Zeitraffer
14:56
31.1
16:55 Uhr
16.5
05:55 Uhr

80
03:45 Uhr
25
15:35 Uhr
1021.3
08:10 Uhr

1017.4
18:50 Uhr
1019.8
0,000
00:00 Uhr
0,000
5.613
455
830
13:35 Uhr
6.0
13:05 Uhr

12:09:00
4,8
1
24,1
11:45 Uhr

4
15.8
00:00 Uhr
7.8
15:35 Uhr
16.5
05:55 Uhr
10
00:00 Uhr
5.9
00:00 Uhr
5.9
00:00 Uhr
0.0
00:00 Uhr
13
Zeitraffer
14:53
32.6
15:10 Uhr
13.7
05:30 Uhr

89
05:55 Uhr
28
14:00 Uhr
1018.0
00:00 Uhr

1012.8
18:50 Uhr
1015.1
0,000
00:00 Uhr
0,000
5.004
401
904
12:30 Uhr
5.8
13:10 Uhr

09:16:00
3,7
1
20,9
12:25 Uhr

4
15.2
18:45 Uhr
10.6
13:20 Uhr
13.7
05:30 Uhr
7
21:45 Uhr
5.9
00:00 Uhr
5.9
00:00 Uhr
0.0
00:00 Uhr
14
Zeitraffer
14:49
27.8
15:10 Uhr
17.8
23:50 Uhr

93
09:30 Uhr
44
16:15 Uhr
1014.2
11:00 Uhr

1012.5
18:15 Uhr
1013.4
2,400
05:05 Uhr
0,600
2.515
206
810
15:10 Uhr
4.8
13:55 Uhr

04:35:00
2,8
1
19,3
14:15 Uhr

3
18.3
14:05 Uhr
13.4
00:20 Uhr
17.8
23:50 Uhr
11
22:25 Uhr
5.9
00:00 Uhr
5.9
00:00 Uhr
0.0
00:00 Uhr
15
Zeitraffer
14:45
31.3
17:30 Uhr
12.9
06:00 Uhr

94
05:00 Uhr
33
17:15 Uhr
1015.6
23:50 Uhr

1013.5
18:10 Uhr
1014.4
0,000
00:00 Uhr
0,000
4.572
393
814
13:15 Uhr
5.2
13:00 Uhr

10:51:00
2,6
1
20,9
18:30 Uhr

4
16.1
08:30 Uhr
12.0
06:00 Uhr
12.9
06:00 Uhr
10
22:30 Uhr
5.9
00:00 Uhr
5.9
00:00 Uhr
0.0
00:00 Uhr


 
Wetter Information zur Wetteranzeige
Zeitraffer
Tageslänge (hh:mm)
Höchsttemperatur in °C
Uhrzeit
Tiefsttemperatur in °C
Uhrzeit
Luftfeuchte (max., in %)
Uhrzeit
Luftfeuchte (min., in %)
Uhrzeit
Luftdruck (max., in hPa)
Uhrzeit
Luftdruck (min., in hPa)
Uhrzeit
Luftdruck (Ø, in hPa)
Regenrate (max, mm/h)
Uhrzeit
Niederschlag in mm
Verdunstung in mm
Solar in W/m² (Ø)
Solar in W/m² (max.)
UV-Index (max.)
Sonnenscheindauer (hh:mm)
Windrichtung (Ø)
Windstärke (Ø in km/h)
Windstärke (Ø in bft)
Windböe (max., in km/h)
Uhrzeit
Windböe (max., in bft)
Uhrzeit
Taupunkt (max., in °C)
Uhrzeit
Taupunkt (min., in °C)
Uhrzeit
Windchill (min., in °C)
Uhrzeit
Gewitterindex (max.)
Uhrzeit
Waldbrandindex (max.)
Uhrzeit
Graslandfeuerindex (max.)
Uhrzeit
Staubsturm-Index (max.)
Uhrzeit
16
Zeitraffer
14:42
31.1
15:50 Uhr
15.2
06:20 Uhr

93
05:25 Uhr
23
17:10 Uhr
1016.3
07:50 Uhr

1012.6
18:50 Uhr
1014.7
0,000
00:00 Uhr
0,000
5.563
446
797
13:35 Uhr
5.6
13:05 Uhr

11:54:00
4,1
1
32,2
11:35 Uhr

5
16.6
08:35 Uhr
6.8
17:50 Uhr
15.2
06:20 Uhr
9
00:00 Uhr
5.9
00:00 Uhr
5.9
00:00 Uhr
0.0
00:00 Uhr
17
Zeitraffer
14:38
31.6
16:30 Uhr
13.2
06:00 Uhr

83
06:00 Uhr
33
15:25 Uhr
1013.1
00:10 Uhr

1007.9
18:35 Uhr
1010.3
0,000
00:00 Uhr
0,000
4.724
389
887
13:35 Uhr
5.3
13:10 Uhr

09:32:00
3,5
1
24,1
13:40 Uhr

4
16.3
23:10 Uhr
10.2
04:55 Uhr
13.2
06:00 Uhr
10
21:35 Uhr
5.9
00:00 Uhr
5.9
00:00 Uhr
0.0
00:00 Uhr
18
Zeitraffer
14:34
22.8
10:25 Uhr
15.9
03:50 Uhr

95
22:25 Uhr
73
10:30 Uhr
1010.1
23:15 Uhr

1008.3
03:15 Uhr
1009.0
2,400
11:55 Uhr
1,400
1.473
150
495
17:45 Uhr
2.2
15:30 Uhr

01:43:00
3,7
1
25,7
09:10 Uhr

4
18.9
17:50 Uhr
14.1
03:50 Uhr
15.9
03:50 Uhr
12
21:05 Uhr
5.9
00:00 Uhr
5.9
00:00 Uhr
0.0
00:00 Uhr
19
Zeitraffer
14:31
25.2
17:05 Uhr
15.6
06:15 Uhr

96
05:30 Uhr
57
16:45 Uhr
1011.3
14:15 Uhr

1009.6
02:15 Uhr
1010.4
7,200
11:30 Uhr
0,600
3.099
316
1021
13:10 Uhr
6.1
13:00 Uhr

06:57:00
3,2
1
27,4
14:10 Uhr

4
18.6
12:30 Uhr
14.9
06:25 Uhr
15.6
06:15 Uhr
11
00:00 Uhr
5.9
00:00 Uhr
5.9
00:00 Uhr
0.0
00:00 Uhr
20
Zeitraffer
14:26
30.7
15:55 Uhr
12.8
05:25 Uhr

96
03:30 Uhr
37
14:45 Uhr
1011.9
23:50 Uhr

1010.3
14:20 Uhr
1010.9
0,000
00:00 Uhr
0,000
3.937
349
962
13:15 Uhr
6.4
13:20 Uhr

06:38:00
3,1
1
27,4
15:00 Uhr

4
18.1
20:35 Uhr
12.0
06:00 Uhr
12.8
05:25 Uhr
12
21:10 Uhr
5.9
00:00 Uhr
5.9
00:00 Uhr
0.0
00:00 Uhr
21
Zeitraffer
14:22
34.9
15:45 Uhr
16.6
06:15 Uhr

92
03:00 Uhr
31
15:20 Uhr
1012.0
03:10 Uhr

1009.0
19:50 Uhr
1010.8
0,000
00:00 Uhr
0,000
4.674
377
839
13:50 Uhr
6.1
13:05 Uhr

08:45:00
3,7
1
33,8
12:00 Uhr

5
20.4
23:45 Uhr
15.0
06:05 Uhr
16.6
06:15 Uhr
15
23:45 Uhr
5.9
00:00 Uhr
5.9
00:00 Uhr
0.0
00:00 Uhr
22
Zeitraffer
14:19
26.2
14:45 Uhr
16.5
23:55 Uhr

96
21:50 Uhr
61
16:35 Uhr
1013.9
23:50 Uhr

1010.8
00:00 Uhr
1012.5
43,200
17:30 Uhr
11,400
1.956
174
717
11:50 Uhr
4.6
14:40 Uhr

02:14:00
3,7
1
48,3
17:30 Uhr

6
21.0
13:10 Uhr
15.9
23:45 Uhr
16.0
17:30 Uhr
15
00:00 Uhr
5.9
00:00 Uhr
5.9
00:00 Uhr
0.0
00:00 Uhr
23
Zeitraffer
14:15
24.1
17:05 Uhr
14.4
04:15 Uhr

96
00:00 Uhr
43
17:10 Uhr
1014.4
02:05 Uhr

1012.0
18:25 Uhr
1013.2
0,000
00:00 Uhr
0,000
4.013
365
983
13:35 Uhr
5.7
13:30 Uhr

08:33:00
5,8
1
38,6
13:55 Uhr

5
15.9
00:00 Uhr
10.2
17:30 Uhr
14.4
04:15 Uhr
10
00:00 Uhr
0.0
00:00 Uhr
5.7
18:05 Uhr
0.0
00:00 Uhr
24
Zeitraffer
14:11
21.4
16:55 Uhr
14.2
05:25 Uhr

90
05:25 Uhr
58
13:10 Uhr
1014.5
07:40 Uhr

1011.8
18:00 Uhr
1013.5
12,000
14:35 Uhr
1,200
2.464
240
828
12:15 Uhr
4.9
13:15 Uhr

05:19:00
5,0
1
33,8
20:30 Uhr

5
16.4
15:55 Uhr
11.5
00:05 Uhr
13.1
20:45 Uhr
7
15:30 Uhr
3.3
14:00 Uhr
5.9
00:00 Uhr
0.0
00:00 Uhr
25
Zeitraffer
14:07
21.8
15:30 Uhr
12.5
04:55 Uhr

92
04:45 Uhr
49
16:50 Uhr
1014.2
10:25 Uhr

1006.7
23:55 Uhr
1011.9
0,000
00:00 Uhr
0,000
2.743
295
889
13:00 Uhr
5.7
13:25 Uhr

05:24:00
4,0
1
24,1
08:55 Uhr

4
14.3
18:20 Uhr
10.3
16:50 Uhr
10.2
08:00 Uhr
8
20:50 Uhr
2.3
17:00 Uhr
5.9
00:00 Uhr
0.0
00:00 Uhr
26
Zeitraffer
14:03
19.2
00:55 Uhr
14.3
06:55 Uhr

95
06:40 Uhr
67
00:50 Uhr
1006.7
00:00 Uhr

1001.0
08:50 Uhr
1003.2
16,800
05:10 Uhr
10,200
1.321
118
480
08:45 Uhr
2.1
13:10 Uhr

01:14:00
9,5
2
48,3
12:50 Uhr

6
15.0
22:30 Uhr
12.6
03:20 Uhr
9.6
13:35 Uhr
9
22:30 Uhr
5.9
00:00 Uhr
5.9
00:00 Uhr
0.0
00:00 Uhr
27
Zeitraffer
13:59
18.3
17:15 Uhr
10.9
23:50 Uhr

94
01:30 Uhr
64
14:45 Uhr
1013.5
17:25 Uhr

1006.1
00:00 Uhr
1011.0
2,400
00:10 Uhr
1,400
2.235
206
869
12:10 Uhr
5.1
12:10 Uhr

02:34:00
10,4
2
49,9
09:25 Uhr

6
15.0
00:00 Uhr
10.0
23:35 Uhr
9.2
08:50 Uhr
9
00:00 Uhr
3.1
00:00 Uhr
5.9
00:00 Uhr
0.0
00:00 Uhr
28
Zeitraffer
13:56
20.8
17:05 Uhr
9.6
02:25 Uhr

96
02:40 Uhr
72
17:05 Uhr
1012.4
00:05 Uhr

1001.4
23:55 Uhr
1005.8
2,400
12:10 Uhr
0,200
1.346
157
535
13:35 Uhr
3.4
12:25 Uhr

00:57:00
2,9
1
24,1
12:55 Uhr

4
16.0
18:40 Uhr
8.8
02:25 Uhr
9.6
02:25 Uhr
9
20:40 Uhr
0.4
17:00 Uhr
4.8
16:05 Uhr
0.0
00:00 Uhr
29
Zeitraffer
13:51
23.0
15:30 Uhr
13.3
06:25 Uhr

96
01:30 Uhr
46
18:05 Uhr
1007.6
22:55 Uhr

1000.4
01:35 Uhr
1004.1
0,000
00:00 Uhr
0,000
3.073
336
951
12:35 Uhr
4.9
12:20 Uhr

06:59:00
3,2
1
29,0
16:10 Uhr

4
14.5
00:10 Uhr
10.2
18:20 Uhr
13.3
06:25 Uhr
8
00:00 Uhr
1.3
15:50 Uhr
5.9
18:05 Uhr
0.0
00:00 Uhr
30
Zeitraffer
13:47
24.7
13:30 Uhr
11.3
06:50 Uhr

96
05:50 Uhr
48
14:40 Uhr
1009.5
21:10 Uhr

1007.2
03:50 Uhr
1008.1
16,800
18:45 Uhr
11,600
2.159
261
854
11:45 Uhr
4.5
12:45 Uhr

04:47:00
2,8
1
17,7
18:45 Uhr

3
15.8
17:45 Uhr
10.7
06:50 Uhr
11.3
06:50 Uhr
9
20:35 Uhr
4.7
14:05 Uhr
5.9
10:00 Uhr
0.0
00:00 Uhr
31
Zeitraffer
13:44
22.6
13:55 Uhr
13.2
23:55 Uhr

96
00:25 Uhr
52
13:55 Uhr
1018.3
23:10 Uhr

1009.3
00:00 Uhr
1014.1
2,400
03:00 Uhr
0,200
2.769
325
923
13:20 Uhr
5.1
13:10 Uhr

05:47:00
4,4
1
32,2
14:35 Uhr

5
15.7
10:00 Uhr
10.8
14:40 Uhr
13.2
05:45 Uhr
7
00:00 Uhr
0.0
00:00 Uhr
0.0
00:00 Uhr
0.0
00:00 Uhr
Stationsstandorte || Wetterblog || Wissenswertes || Downloads || Seitenhistorie || Partner || Impressum / Datenschutz